Location: Unspecified
(0.0000°N, 0.0000°E)
Time: 22:58:08
(UTC+00:00)

Courier 1B Rocket - All Passes

Search period start: 19 November 2019 00:00
Search period end: 29 November 2019 00:00
Orbit: 920 x 1202 km, 28.2° (Epoch: 19 November)

Date Brightness Start Highest point End Pass type
(mag) Time Alt. Az. Time Alt. Az. Time Alt. Az.
19 Nov - 01:02:22 10° W 01:08:20 26° SSW 01:14:00 10° SSE visible
19 Nov - 08:44:51 10° SSW 08:49:24 21° SSE 08:54:01 10° ESE daylight
19 Nov - 10:36:39 10° SW 10:42:58 79° SSE 10:49:36 10° ENE daylight
19 Nov - 12:31:02 10° W 12:36:36 29° NNW 12:42:28 10° NNE daylight
19 Nov - 20:13:07 10° NNW 20:18:57 22° NNE 20:24:44 10° ENE visible
19 Nov - 22:05:25 10° NW 22:13:11 68° NNE 22:20:39 10° ESE night (unlit)
20 Nov - 00:00:01 10° W 00:07:00 38° SSW 00:13:39 10° SE night (unlit)
20 Nov - 01:58:59 10° SW 02:01:20 12° SSW 02:03:38 10° S visible
20 Nov - 07:45:09 10° S 07:48:09 14° SSE 07:51:08 10° SE daylight
20 Nov - 09:35:56 10° SW 09:41:57 50° SSE 09:48:10 10° ENE daylight
20 Nov - 11:29:25 10° W 11:35:24 43° NNW 11:41:43 10° NE daylight
20 Nov - 13:26:32 10° NW 13:29:37 13° NNW 13:32:49 10° N daylight
20 Nov - 19:12:52 10° NNW 19:17:19 16° NNE 19:21:46 10° ENE visible
20 Nov - 21:04:21 10° NW 21:11:49 47° NNE 21:19:06 10° E visible
20 Nov - 22:58:06 10° WNW 23:05:43 57° SSW 23:12:58 10° SE night (unlit)
21 Nov - 00:55:02 10° WSW 00:59:48 18° SSW 01:04:25 10° SSE night (unlit)
21 Nov - 08:35:24 10° SSW 08:40:55 32° SSE 08:46:27 10° E daylight
21 Nov - 10:28:07 10° WSW 10:34:20 66° NNW 10:40:49 10° NE daylight
21 Nov - 12:23:45 10° WNW 12:28:10 19° NNW 12:32:45 10° NNE daylight
21 Nov - 18:13:32 10° N 18:15:33 11° NNE 18:17:33 10° NE visible
21 Nov - 20:03:33 10° NNW 20:10:22 33° NNE 20:17:10 10° E visible
21 Nov - 21:56:31 10° WNW 22:04:23 83° SSW 22:12:01 10° ESE night (unlit)
21 Nov - 23:52:09 10° W 23:58:21 26° SSW 00:04:19 10° SSE night (unlit)
22 Nov - 07:35:08 10° SSW 07:39:47 21° SSE 07:44:23 10° ESE daylight
22 Nov - 09:27:05 10° WSW 09:33:20 81° SSE 09:39:43 10° ENE daylight
22 Nov - 11:21:37 10° W 11:26:52 27° NNW 11:32:21 10° NNE daylight
22 Nov - 19:03:02 10° NNW 19:08:51 23° NNE 19:14:45 10° ENE visible
22 Nov - 20:55:15 10° NW 21:03:02 69° NNE 21:10:45 10° ESE visible
22 Nov - 22:49:49 10° W 22:56:58 39° SSW 23:03:52 10° SE night (unlit)
23 Nov - 00:48:34 10° SW 00:51:25 12° SSW 00:54:15 10° S night (unlit)
23 Nov - 06:35:14 10° S 06:38:30 14° SSE 06:41:43 10° SE daylight
23 Nov - 08:26:17 10° SW 08:32:20 51° SSE 08:38:25 10° ENE daylight
23 Nov - 10:19:56 10° W 10:25:44 41° NNW 10:31:45 10° NE daylight
23 Nov - 12:17:29 10° NW 12:19:52 12° NNW 12:22:18 10° N daylight
23 Nov - 18:02:55 10° NNW 18:07:15 16° NNE 18:11:40 10° ENE visible
23 Nov - 19:54:15 10° NW 20:01:39 48° NNE 20:09:08 10° ESE visible
23 Nov - 21:47:56 10° WNW 21:55:35 56° SSW 22:03:06 10° SE visible
23 Nov - 23:44:48 10° WSW 23:49:49 18° SSW 23:54:44 10° SSE night (unlit)
24 Nov - 07:25:39 10° SW 07:31:18 33° SSE 07:36:50 10° E daylight
24 Nov - 09:18:32 10° WSW 09:24:42 63° NNW 09:30:58 10° NE daylight
24 Nov - 11:14:25 10° WNW 11:18:28 17° NNW 11:22:36 10° NNE daylight
24 Nov - 17:03:58 10° N 17:05:33 11° NNE 17:07:08 10° NNE daylight
24 Nov - 18:53:32 10° NNW 19:00:15 33° NNE 19:07:06 10° E visible
24 Nov - 20:46:24 10° WNW 20:54:14 82° SSW 21:02:03 10° ESE visible
24 Nov - 22:41:58 10° W 22:48:18 27° SSW 22:54:30 10° SSE night (unlit)
25 Nov - 06:25:15 10° SSW 06:30:08 22° SSE 06:34:54 10° ESE daylight
25 Nov - 08:17:24 10° WSW 08:23:44 83° SSE 08:30:00 10° ENE daylight
25 Nov - 10:12:10 10° W 10:17:14 26° NNW 10:22:23 10° NNE daylight
25 Nov - 17:53:08 10° NNW 17:58:47 23° NNE 18:04:36 10° ENE daylight
25 Nov - 19:45:12 10° NW 19:52:52 71° NNE 20:00:42 10° ESE visible
25 Nov - 21:39:41 10° W 21:46:50 38° SSW 21:53:56 10° SE visible
25 Nov - 23:38:15 10° SW 23:41:27 13° SSW 23:44:38 10° S night (unlit)
26 Nov - 05:25:06 10° SSW 05:28:48 15° SSE 05:32:25 10° ESE visible
26 Nov - 07:16:29 10° SW 07:22:44 53° SSE 07:28:47 10° ENE daylight
26 Nov - 09:10:20 10° W 09:16:08 39° NNW 09:21:55 10° NE daylight
26 Nov - 11:08:31 10° NW 11:10:10 11° NNW 11:11:51 10° N daylight
26 Nov - 16:53:11 10° N 16:57:15 15° NNE 17:01:26 10° ENE daylight
26 Nov - 18:44:18 10° NW 18:51:32 48° NNE 18:59:00 10° ESE visible
26 Nov - 20:37:52 10° WNW 20:45:26 55° SSW 20:53:04 10° SE visible
26 Nov - 22:34:38 10° WSW 22:39:47 19° SSW 22:44:51 10° SSE night (unlit)
27 Nov - 04:25:47 10° S 04:27:19 11° SSE 04:28:50 10° SSE visible
27 Nov - 06:15:44 10° SW 06:21:39 35° SSE 06:27:19 10° E daylight
27 Nov - 08:08:51 10° WSW 08:15:07 61° NNW 08:21:16 10° NE daylight
27 Nov - 10:05:01 10° WNW 10:08:48 16° NNW 10:12:37 10° NNE daylight
27 Nov - 15:55:14 10° NNE 15:55:37 10° NNE 15:56:00 10° NNE daylight
27 Nov - 17:43:41 10° NNW 17:50:10 33° NNE 17:56:56 10° E daylight
27 Nov - 19:36:26 10° WNW 19:44:03 80° SSW 19:51:57 10° SE visible
27 Nov - 21:31:53 10° W 21:38:11 26° SSW 21:44:30 10° SSE visible
28 Nov - 05:15:10 10° SSW 05:20:27 24° SSE 05:25:29 10° ESE visible
28 Nov - 07:07:36 10° WSW 07:14:07 86° SSE 07:20:23 10° ENE daylight
28 Nov - 09:02:35 10° W 09:07:36 25° NNW 09:12:35 10° NNE daylight
28 Nov - 16:43:24 10° NNW 16:48:46 22° NNE 16:54:23 10° ENE daylight
28 Nov - 18:35:19 10° NW 18:42:44 72° NNE 18:50:32 10° ESE visible
28 Nov - 20:29:42 10° W 20:36:42 37° SSW 20:43:50 10° SE visible
28 Nov - 22:28:05 10° SW 22:31:25 13° SSW 22:34:45 10° S visible
